Time,TemperatureF,DewpointF,PressureIn,WindDirection,WindDirectionDegrees,WindSpeedMPH,WindSpeedGustMPH,Humidity,HourlyPrecipIn,Conditions,Clouds,dailyrainin,SoftwareType,DateUTC
2013-04-22 00:00:00,52.6,51.8,30.08,ESE,106,0.0,0.0,97,0.00,,---,0.00,VWS V14.01,2013-04-22 05:00:00,
2013-04-22 00:03:00,52.6,51.8,30.08,ESE,106,0.0,0.0,97,0.00,,---,0.00,VWS V14.01,2013-04-22 05:03:00,
2013-04-22 00:08:00,52.5,51.7,30.08,ESE,106,0.0,0.0,97,0.00,,---,0.00,VWS V14.01,2013-04-22 05:08:00,
2013-04-22 00:13:00,52.3,51.5,30.08,ESE,106,0.0,0.0,97,0.00,,---,0.00,VWS V14.01,2013-04-22 05:13:00,
2013-04-22 00:15:00,52.2,51.4,30.07,ESE,106,0.0,0.0,97,0.00,,---,0.00,VWS V14.01,2013-04-22 05:15:00,
2013-04-22 00:18:00,52.2,51.4,30.07,ESE,106,0.0,0.0,97,0.00,,---,0.00,VWS V14.01,2013-04-22 05:18:00,
2013-04-22 00:23:00,52.0,51.2,30.07,ESE,106,0.0,0.0,97,0.00,,---,0.00,VWS V14.01,2013-04-22 05:23:00,
2013-04-22 00:28:00,51.9,51.1,30.07,ESE,106,0.0,0.0,97,0.00,,---,0.00,VWS V14.01,2013-04-22 05:28:00,
2013-04-22 00:30:00,51.9,51.1,30.07,ESE,106,0.0,0.0,97,0.00,,---,0.00,VWS V14.01,2013-04-22 05:30:00,
2013-04-22 00:33:00,51.7,50.9,30.07,ESE,106,0.0,0.0,97,0.00,,---,0.00,VWS V14.01,2013-04-22 05:33:00,
2013-04-22 00:39:00,51.7,50.9,30.07,ESE,106,0.0,0.0,97,0.00,,---,0.00,VWS V14.01,2013-04-22 05:39:00,
2013-04-22 00:43:00,51.4,50.6,30.07,ESE,106,0.0,0.0,97,0.00,,---,0.00,VWS V14.01,2013-04-22 05:43:00,
2013-04-22 00:45:00,51.4,50.6,30.07,ESE,106,0.0,0.0,97,0.00,,---,0.00,VWS V14.01,2013-04-22 05:45:00,
2013-04-22 00:49:00,51.4,50.6,30.07,ESE,106,0.0,0.0,97,0.00,,---,0.00,VWS V14.01,2013-04-22 05:49:00,
2013-04-22 00:54:00,51.3,50.5,30.07,ESE,106,0.0,0.0,97,0.00,,---,0.00,VWS V14.01,2013-04-22 05:54:00,
2013-04-22 00:59:00,51.1,50.3,30.07,ESE,106,0.0,0.0,97,0.00,,---,0.00,VWS V14.01,2013-04-22 05:59:00,
2013-04-22 01:00:00,51.1,50.3,30.06,ESE,106,0.0,0.0,97,0.00,,---,0.00,VWS V14.01,2013-04-22 06:00:00,
2013-04-22 01:04:00,51.0,50.2,30.06,ESE,106,0.0,0.0,97,0.00,,---,0.00,VWS V14.01,2013-04-22 06:04:00,
2013-04-22 01:09:00,51.0,50.2,30.06,ESE,106,0.0,0.0,97,0.00,,---,0.00,VWS V14.01,2013-04-22 06:09:00,
2013-04-22 01:14:00,50.8,50.0,30.06,ESE,106,0.0,0.0,97,0.00,,---,0.00,VWS V14.01,2013-04-22 06:14:00,
2013-04-22 01:15:00,50.7,49.9,30.06,ESE,106,0.0,0.0,97,0.00,,---,0.00,VWS V14.01,2013-04-22 06:15:00,
2013-04-22 01:19:00,50.7,49.9,30.06,ESE,106,0.0,0.0,97,0.00,,---,0.00,VWS V14.01,2013-04-22 06:19:00,
2013-04-22 01:24:00,50.5,49.7,30.06,ESE,106,0.0,0.0,97,0.00,,---,0.00,VWS V14.01,2013-04-22 06:24:00,
2013-04-22 01:29:00,50.4,49.6,30.06,ESE,106,0.0,0.0,97,0.00,,---,0.00,VWS V14.01,2013-04-22 06:29:00,
2013-04-22 01:30:00,50.4,49.6,30.06,ESE,106,0.0,0.0,97,0.00,,---,0.00,VWS V14.01,2013-04-22 06:30:00,
2013-04-22 01:34:00,50.2,49.4,30.06,ESE,106,0.0,0.0,97,0.00,,---,0.00,VWS V14.01,2013-04-22 06:34:00,
2013-04-22 01:39:00,50.1,49.3,30.06,ESE,106,0.0,0.0,97,0.00,,---,0.00,VWS V14.01,2013-04-22 06:39:00,
2013-04-22 01:45:00,50.1,49.3,30.05,ESE,106,0.0,0.0,97,0.00,,---,0.00,VWS V14.01,2013-04-22 06:45:00,
2013-04-22 01:50:00,50.1,49.3,30.05,ESE,106,0.0,0.0,97,0.00,,---,0.00,VWS V14.01,2013-04-22 06:50:00,
2013-04-22 01:55:00,49.9,49.1,30.05,ESE,106,0.0,0.0,97,0.00,,---,0.00,VWS V14.01,2013-04-22 06:55:00,
2013-04-22 02:00:00,49.8,49.0,30.05,ESE,106,0.0,0.0,97,0.00,,---,0.00,VWS V14.01,2013-04-22 07:00:00,
2013-04-22 02:05:00,49.6,48.8,30.05,ESE,106,0.0,0.0,97,0.00,,---,0.00,VWS V14.01,2013-04-22 07:05:00,
2013-04-22 02:10:00,49.6,48.8,30.05,ESE,106,0.0,0.0,97,0.00,,---,0.00,VWS V14.01,2013-04-22 07:10:00,
2013-04-22 02:15:00,49.5,48.7,30.05,ESE,106,0.0,0.0,97,0.00,,---,0.00,VWS V14.01,2013-04-22 07:15:00,
2013-04-22 02:20:00,49.4,48.6,30.05,ESE,106,0.0,0.0,97,0.00,,---,0.00,VWS V14.01,2013-04-22 07:20:00,
2013-04-22 02:26:00,49.2,48.4,30.05,ESE,106,0.0,0.0,97,0.00,,---,0.00,VWS V14.01,2013-04-22 07:26:00,
2013-04-22 02:30:00,49.2,48.4,30.04,ESE,106,0.0,0.0,97,0.00,,---,0.00,VWS V14.01,2013-04-22 07:30:00,
2013-04-22 02:31:00,49.2,48.4,30.04,ESE,106,0.0,0.0,97,0.00,,---,0.00,VWS V14.01,2013-04-22 07:31:00,
2013-04-22 02:36:00,49.2,48.4,30.04,ESE,106,0.0,0.0,97,0.00,,---,0.00,VWS V14.01,2013-04-22 07:36:00,
2013-04-22 02:41:00,49.1,48.3,30.04,ESE,106,0.0,0.0,97,0.00,,---,0.00,VWS V14.01,2013-04-22 07:41:00,
2013-04-22 02:45:00,49.1,48.3,30.04,ESE,106,0.0,0.0,97,0.00,,---,0.00,VWS V14.01,2013-04-22 07:45:00,
2013-04-22 02:46:00,48.9,48.1,30.04,ESE,106,0.0,0.0,97,0.00,,---,0.00,VWS V14.01,2013-04-22 07:46:00,
2013-04-22 02:51:00,48.9,48.1,30.04,ESE,106,0.0,0.0,97,0.00,,---,0.00,VWS V14.01,2013-04-22 07:51:00,
2013-04-22 02:56:00,48.9,48.1,30.04,ESE,106,0.0,0.0,97,0.00,,---,0.00,VWS V14.01,2013-04-22 07:56:00,
2013-04-22 03:00:00,48.9,48.1,30.03,ESE,106,0.0,0.0,97,0.00,,---,0.00,VWS V14.01,2013-04-22 08:00:00,
2013-04-22 03:01:00,48.8,48.0,30.03,ESE,106,0.0,0.0,97,0.00,,---,0.00,VWS V14.01,2013-04-22 08:01:00,
2013-04-22 03:06:00,48.8,48.0,30.03,ESE,106,0.0,0.0,97,0.00,,---,0.00,VWS V14.01,2013-04-22 08:06:00,
2013-04-22 03:11:00,48.8,48.0,30.03,ESE,106,0.0,0.0,97,0.00,,---,0.00,VWS V14.01,2013-04-22 08:11:00,
2013-04-22 03:15:00,48.8,48.0,30.03,ESE,106,0.0,0.0,97,0.00,,---,0.00,VWS V14.01,2013-04-22 08:15:00,
2013-04-22 03:17:00,48.8,48.0,30.03,ESE,106,0.0,0.0,97,0.00,,---,0.00,VWS V14.01,2013-04-22 08:17:00,
2013-04-22 03:22:00,48.8,48.0,30.03,ESE,106,0.0,1.0,97,0.00,,---,0.00,VWS V14.01,2013-04-22 08:22:00,
2013-04-22 03:27:00,48.8,48.0,30.03,ESE,106,0.0,1.0,97,0.00,,---,0.00,VWS V14.01,2013-04-22 08:27:00,
2013-04-22 03:30:00,48.9,48.1,30.03,ESE,106,0.0,1.0,97,0.00,,---,0.00,VWS V14.01,2013-04-22 08:30:00,
2013-04-22 03:32:00,48.8,48.0,30.03,ESE,106,0.0,0.0,97,0.00,,---,0.00,VWS V14.01,2013-04-22 08:32:00,
2013-04-22 03:37:00,48.8,48.0,30.03,ESE,106,0.0,0.0,97,0.00,,---,0.00,VWS V14.01,2013-04-22 08:37:00,
2013-04-22 03:42:00,48.6,47.8,30.03,ESE,106,0.0,1.0,97,0.00,,---,0.00,VWS V14.01,2013-04-22 08:42:00,
2013-04-22 03:45:00,48.6,47.8,30.03,ESE,106,0.0,1.0,97,0.00,,---,0.00,VWS V14.01,2013-04-22 08:45:00,
2013-04-22 03:47:00,48.5,47.7,30.03,ESE,106,0.0,0.0,97,0.00,,---,0.00,VWS V14.01,2013-04-22 08:47:00,
2013-04-22 03:52:00,48.5,47.7,30.03,ESE,106,0.0,0.0,97,0.00,,---,0.00,VWS V14.01,2013-04-22 08:52:00,
2013-04-22 03:57:00,48.3,47.5,30.03,ESE,106,0.0,0.0,97,0.00,,---,0.00,VWS V14.01,2013-04-22 08:57:00,
2013-04-22 04:00:00,48.3,47.5,30.03,ESE,106,0.0,0.0,97,0.00,,---,0.00,VWS V14.01,2013-04-22 09:00:00,
2013-04-22 04:02:00,48.3,47.5,30.03,ESE,106,0.0,0.0,97,0.00,,---,0.00,VWS V14.01,2013-04-22 09:02:00,
2013-04-22 04:08:00,48.3,47.5,30.03,ESE,106,0.0,0.0,97,0.00,,---,0.00,VWS V14.01,2013-04-22 09:08:00,
2013-04-22 04:13:00,48.2,47.4,30.03,ESE,106,0.0,0.0,97,0.00,,---,0.00,VWS V14.01,2013-04-22 09:13:00,
2013-04-22 04:15:00,48.0,47.2,30.03,ESE,106,0.0,0.0,97,0.00,,---,0.00,VWS V14.01,2013-04-22 09:15:00,
2013-04-22 04:18:00,48.0,47.2,30.03,ESE,106,0.0,0.0,97,0.00,,---,0.00,VWS V14.01,2013-04-22 09:18:00,
2013-04-22 04:23:00,47.9,47.1,30.03,ESE,106,0.0,0.0,97,0.00,,---,0.00,VWS V14.01,2013-04-22 09:23:00,
2013-04-22 04:28:00,47.9,47.1,30.03,ESE,106,0.0,0.0,97,0.00,,---,0.00,VWS V14.01,2013-04-22 09:28:00,
2013-04-22 04:30:00,47.9,47.1,30.03,ESE,106,0.0,0.0,97,0.00,,---,0.00,VWS V14.01,2013-04-22 09:30:00,
2013-04-22 04:33:00,47.7,46.9,30.03,ESE,106,0.0,0.0,97,0.00,,---,0.00,VWS V14.01,2013-04-22 09:33:00,
2013-04-22 04:38:00,47.9,47.1,30.03,ESE,106,0.0,0.0,97,0.00,,---,0.00,VWS V14.01,2013-04-22 09:38:00,
2013-04-22 04:43:00,47.9,47.1,30.03,ESE,106,0.0,0.0,97,0.00,,---,0.00,VWS V14.01,2013-04-22 09:43:00,
2013-04-22 04:45:00,47.9,47.1,30.03,ESE,106,0.0,0.0,97,0.00,,---,0.00,VWS V14.01,2013-04-22 09:45:00,
2013-04-22 04:48:00,47.9,47.1,30.03,ESE,106,0.0,0.0,97,0.00,,---,0.00,VWS V14.01,2013-04-22 09:48:00,
2013-04-22 04:54:00,47.9,47.1,30.03,ESE,106,0.0,1.0,97,0.00,,---,0.00,VWS V14.01,2013-04-22 09:54:00,
2013-04-22 04:59:00,47.9,47.1,30.03,ESE,106,0.0,1.0,97,0.00,,---,0.00,VWS V14.01,2013-04-22 09:59:00,
2013-04-22 05:00:00,47.9,47.1,30.04,ESE,106,0.0,1.0,97,0.00,,---,0.00,VWS V14.01,2013-04-22 10:00:00,
2013-04-22 05:04:00,47.9,47.1,30.04,ESE,106,0.0,0.0,97,0.00,,---,0.00,VWS V14.01,2013-04-22 10:04:00,
2013-04-22 05:09:00,47.7,46.9,30.04,NNE,13,0.0,1.0,97,0.00,,---,0.00,VWS V14.01,2013-04-22 10:09:00,
2013-04-22 05:14:00,47.7,46.9,30.03,NNE,13,0.0,1.0,97,0.00,,---,0.00,VWS V14.01,2013-04-22 10:14:00,
2013-04-22 05:15:00,47.7,46.9,30.03,NNE,13,0.0,1.0,97,0.00,,---,0.00,VWS V14.01,2013-04-22 10:15:00,
2013-04-22 05:19:00,47.7,46.9,30.03,NNE,13,0.0,0.0,97,0.00,,---,0.00,VWS V14.01,2013-04-22 10:19:00,
2013-04-22 05:24:00,47.6,46.8,30.03,NNE,13,0.0,0.0,97,0.00,,---,0.00,VWS V14.01,2013-04-22 10:24:00,
2013-04-22 05:29:00,47.6,46.8,30.04,NNE,13,0.0,1.0,97,0.00,,---,0.00,VWS V14.01,2013-04-22 10:29:00,
2013-04-22 05:30:00,47.6,46.8,30.04,NNE,13,0.0,1.0,97,0.00,,---,0.00,VWS V14.01,2013-04-22 10:30:00,
2013-04-22 05:34:00,47.7,46.9,30.04,NNE,13,0.0,0.0,97,0.00,,---,0.00,VWS V14.01,2013-04-22 10:34:00,
2013-04-22 05:39:00,47.7,46.9,30.04,NNE,12,0.0,1.0,97,0.00,,---,0.00,VWS V14.01,2013-04-22 10:39:00,
2013-04-22 05:45:00,47.6,46.8,30.04,NNE,12,0.0,1.0,97,0.00,,---,0.00,VWS V14.01,2013-04-22 10:45:00,
2013-04-22 05:50:00,47.6,46.8,30.04,NNE,12,0.0,1.0,97,0.00,,---,0.00,VWS V14.01,2013-04-22 10:50:00,
2013-04-22 05:55:00,47.6,46.8,30.04,NNE,12,0.0,1.0,97,0.00,,---,0.00,VWS V14.01,2013-04-22 10:55:00,
2013-04-22 06:00:00,47.7,46.9,30.04,NNE,12,0.0,0.0,97,0.00,,---,0.00,VWS V14.01,2013-04-22 11:00:00,
2013-04-22 06:05:00,47.7,46.9,30.04,NNE,12,0.0,0.0,97,0.00,,---,0.00,VWS V14.01,2013-04-22 11:05:00,
2013-04-22 06:10:00,47.9,47.1,30.04,NNE,12,0.0,0.0,97,0.00,,---,0.00,VWS V14.01,2013-04-22 11:10:00,
2013-04-22 06:15:00,47.7,46.9,30.05,NNE,12,0.0,0.0,97,0.00,,---,0.00,VWS V14.01,2013-04-22 11:15:00,
2013-04-22 06:20:00,47.6,46.8,30.05,NNE,12,0.0,0.0,97,0.00,,---,0.00,VWS V14.01,2013-04-22 11:20:00,
2013-04-22 06:25:00,47.6,46.8,30.05,NNE,12,0.0,0.0,97,0.00,,---,0.00,VWS V14.01,2013-04-22 11:25:00,
2013-04-22 06:30:00,47.6,46.8,30.05,NNE,12,0.0,0.0,97,0.00,,---,0.00,VWS V14.01,2013-04-22 11:30:00,
2013-04-22 06:36:00,47.4,46.6,30.05,NNE,12,0.0,0.0,97,0.00,,---,0.00,VWS V14.01,2013-04-22 11:36:00,
2013-04-22 06:41:00,47.4,46.6,30.05,NNE,12,0.0,0.0,97,0.00,,---,0.00,VWS V14.01,2013-04-22 11:41:00,
2013-04-22 06:45:00,47.4,46.6,30.06,NNE,12,0.0,0.0,97,0.00,,---,0.00,VWS V14.01,2013-04-22 11:45:00,
2013-04-22 06:46:00,47.4,46.6,30.06,NNE,12,0.0,1.0,97,0.00,,---,0.00,VWS V14.01,2013-04-22 11:46:00,
2013-04-22 06:51:00,47.4,46.6,30.06,NNE,12,0.0,1.0,97,0.00,,---,0.00,VWS V14.01,2013-04-22 11:51:00,
2013-04-22 06:56:00,47.6,46.8,30.06,NNE,12,0.0,1.0,97,0.00,,---,0.00,VWS V14.01,2013-04-22 11:56:00,
2013-04-22 07:00:00,47.6,46.8,30.06,NNE,12,0.0,1.0,97,0.00,,---,0.00,VWS V14.01,2013-04-22 12:00:00,
2013-04-22 07:01:00,47.6,46.8,30.06,NNE,12,0.0,0.0,97,0.00,,---,0.00,VWS V14.01,2013-04-22 12:01:00,
2013-04-22 07:06:00,47.7,46.9,30.06,NNE,12,0.0,0.0,97,0.00,,---,0.00,VWS V14.01,2013-04-22 12:06:00,
2013-04-22 07:11:00,47.9,47.1,30.06,NNE,12,0.0,0.0,97,0.00,,---,0.00,VWS V14.01,2013-04-22 12:11:00,
2013-04-22 07:15:00,48.0,47.2,30.06,NNE,12,0.0,0.0,97,0.00,,---,0.00,VWS V14.01,2013-04-22 12:15:00,
2013-04-22 07:16:00,48.0,47.2,30.06,NNE,12,0.0,1.0,97,0.00,,---,0.00,VWS V14.01,2013-04-22 12:16:00,
2013-04-22 07:22:00,48.3,47.5,30.06,NNE,12,0.0,1.0,97,0.00,,---,0.00,VWS V14.01,2013-04-22 12:22:00,
2013-04-22 07:27:00,48.8,48.0,30.06,NNE,13,0.0,1.0,97,0.00,,---,0.00,VWS V14.01,2013-04-22 12:27:00,
2013-04-22 07:30:00,49.2,48.4,30.06,ENE,61,0.0,1.0,97,0.00,,---,0.00,VWS V14.01,2013-04-22 12:30:00,
2013-04-22 07:32:00,49.5,48.7,30.06,NNE,22,0.0,2.0,97,0.00,,---,0.00,VWS V14.01,2013-04-22 12:32:00,
2013-04-22 07:37:00,50.4,49.6,30.06,ENE,78,1.0,5.0,97,0.00,,---,0.00,VWS V14.01,2013-04-22 12:37:00,
2013-04-22 07:42:00,51.3,50.5,30.06,East,99,0.0,5.0,97,0.00,,---,0.00,VWS V14.01,2013-04-22 12:42:00,
2013-04-22 07:45:00,51.6,50.8,30.05,East,99,0.0,5.0,97,0.00,,---,0.00,VWS V14.01,2013-04-22 12:45:00,
2013-04-22 07:47:00,51.7,50.9,30.05,ENE,74,0.0,2.0,97,0.00,,---,0.00,VWS V14.01,2013-04-22 12:47:00,
2013-04-22 07:52:00,52.2,51.4,30.05,ENE,74,1.0,2.0,97,0.00,,---,0.00,VWS V14.01,2013-04-22 12:52:00,
2013-04-22 07:57:00,52.5,51.7,30.05,ENE,74,0.0,2.0,97,0.00,,---,0.00,VWS V14.01,2013-04-22 12:57:00,
2013-04-22 08:00:00,52.8,52.0,30.06,East,89,0.0,3.0,97,0.00,,---,0.00,VWS V14.01,2013-04-22 13:00:00,
2013-04-22 08:02:00,52.9,52.1,30.06,East,101,0.0,6.0,97,0.00,,---,0.00,VWS V14.01,2013-04-22 13:02:00,
2013-04-22 08:07:00,53.6,52.8,30.06,ENE,70,0.0,6.0,97,0.00,,---,0.00,VWS V14.01,2013-04-22 13:07:00,
2013-04-22 08:12:00,54.4,53.6,30.06,ENE,71,0.0,6.0,97,0.00,,---,0.00,VWS V14.01,2013-04-22 13:12:00,
2013-04-22 08:15:00,54.8,54.0,30.06,ENE,71,0.0,6.0,97,0.00,,---,0.00,VWS V14.01,2013-04-22 13:15:00,
2013-04-22 08:17:00,55.3,54.5,30.06,ENE,71,0.0,1.0,97,0.00,,---,0.00,VWS V14.01,2013-04-22 13:17:00,
2013-04-22 08:23:00,56.0,55.2,30.06,East,88,0.0,1.0,97,0.00,,---,0.00,VWS V14.01,2013-04-22 13:23:00,
2013-04-22 08:28:00,56.9,56.1,30.06,NE,52,0.0,1.0,97,0.00,,---,0.00,VWS V14.01,2013-04-22 13:28:00,
2013-04-22 08:30:00,57.0,56.2,30.06,ESE,117,0.0,3.0,97,0.00,,---,0.00,VWS V14.01,2013-04-22 13:30:00,
2013-04-22 08:33:00,57.6,56.8,30.06,ESE,116,0.0,2.0,97,0.00,,---,0.00,VWS V14.01,2013-04-22 13:33:00,
2013-04-22 08:38:00,58.1,57.3,30.06,East,83,4.0,7.0,97,0.00,,---,0.00,VWS V14.01,2013-04-22 13:38:00,
2013-04-22 08:43:00,58.7,57.8,30.06,ESE,122,0.0,7.0,97,0.00,,---,0.00,VWS V14.01,2013-04-22 13:43:00,
2013-04-22 08:45:00,58.9,58.0,30.06,ESE,119,3.0,7.0,97,0.00,,---,0.00,VWS V14.01,2013-04-22 13:45:00,
2013-04-22 08:48:00,59.5,58.7,30.06,ESE,117,0.0,3.0,97,0.00,,---,0.00,VWS V14.01,2013-04-22 13:48:00,
2013-04-22 08:53:00,60.1,59.2,30.06,ENE,78,0.0,3.0,97,0.00,,---,0.00,VWS V14.01,2013-04-22 13:53:00,
2013-04-22 08:58:00,60.9,60.0,30.06,ESE,114,0.0,5.0,97,0.00,,---,0.00,VWS V14.01,2013-04-22 13:58:00,
2013-04-22 09:00:00,61.0,60.2,30.06,ESE,114,0.0,5.0,97,0.00,,---,0.00,VWS V14.01,2013-04-22 14:00:00,
2013-04-22 09:03:00,61.5,60.6,30.06,ESE,104,0.0,4.0,97,0.00,,---,0.00,VWS V14.01,2013-04-22 14:03:00,
2013-04-22 09:09:00,62.3,61.4,30.06,ENE,76,0.0,4.0,97,0.00,,---,0.00,VWS V14.01,2013-04-22 14:09:00,
2013-04-22 09:14:00,63.1,62.2,30.06,East,83,0.0,4.0,97,0.00,,---,0.00,VWS V14.01,2013-04-22 14:14:00,
2013-04-22 09:15:00,63.1,62.2,30.07,ENE,57,0.0,4.0,97,0.00,,---,0.00,VWS V14.01,2013-04-22 14:15:00,
2013-04-22 09:19:00,63.5,62.6,30.07,NE,40,0.0,0.0,97,0.00,,---,0.00,VWS V14.01,2013-04-22 14:19:00,
2013-04-22 09:24:00,64.5,63.6,30.07,ENE,57,0.0,0.0,97,0.00,,---,0.00,VWS V14.01,2013-04-22 14:24:00,
2013-04-22 09:29:00,65.3,64.4,30.07,ENE,65,0.0,4.0,97,0.00,,---,0.00,VWS V14.01,2013-04-22 14:29:00,
2013-04-22 09:30:00,65.5,64.6,30.07,ENE,65,0.0,4.0,97,0.00,,---,0.00,VWS V14.01,2013-04-22 14:30:00,
2013-04-22 09:34:00,66.1,65.2,30.07,East,80,0.0,4.0,97,0.00,,---,0.00,VWS V14.01,2013-04-22 14:34:00,
2013-04-22 09:39:00,66.4,65.5,30.07,ESE,109,1.0,4.0,97,0.00,,---,0.00,VWS V14.01,2013-04-22 14:39:00,
2013-04-22 09:44:00,66.9,66.0,30.07,East,100,0.0,4.0,97,0.00,,---,0.00,VWS V14.01,2013-04-22 14:44:00,
2013-04-22 09:45:00,67.1,66.2,30.07,East,100,0.0,4.0,97,0.00,,---,0.00,VWS V14.01,2013-04-22 14:45:00,
2013-04-22 09:49:00,67.8,66.9,30.07,ESE,121,0.0,0.0,97,0.00,,---,0.00,VWS V14.01,2013-04-22 14:49:00,
2013-04-22 09:54:00,68.3,67.4,30.07,ESE,121,0.0,7.0,97,0.00,,---,0.00,VWS V14.01,2013-04-22 14:54:00,
2013-04-22 09:59:00,68.6,67.7,30.07,East,88,0.0,7.0,97,0.00,,---,0.00,VWS V14.01,2013-04-22 14:59:00,
2013-04-22 10:00:00,68.6,67.7,30.07,East,88,0.0,7.0,97,0.00,,---,0.00,VWS V14.01,2013-04-22 15:00:00,
2013-04-22 10:04:00,69.1,68.2,30.07,ESE,105,0.0,0.0,97,0.00,,---,0.00,VWS V14.01,2013-04-22 15:04:00,
2013-04-22 10:09:00,69.6,68.7,30.07,SE,131,0.0,7.0,97,0.00,,---,0.00,VWS V14.01,2013-04-22 15:09:00,
2013-04-22 10:15:00,69.9,69.0,30.08,ESE,122,0.0,7.0,97,0.00,,---,0.00,VWS V14.01,2013-04-22 15:15:00,
2013-04-22 10:20:00,69.9,69.0,30.08,ESE,103,2.0,6.0,97,0.00,,---,0.00,VWS V14.01,2013-04-22 15:20:00,
2013-04-22 10:25:00,70.3,69.4,30.08,ENE,70,0.0,6.0,97,0.00,,---,0.00,VWS V14.01,2013-04-22 15:25:00,
2013-04-22 10:30:00,70.9,70.0,30.08,SE,137,0.0,0.0,97,0.00,,---,0.00,VWS V14.01,2013-04-22 15:30:00,
2013-04-22 10:35:00,71.1,70.2,30.08,South,172,0.0,0.0,97,0.00,,---,0.00,VWS V14.01,2013-04-22 15:35:00,
2013-04-22 10:40:00,71.5,70.6,30.08,East,94,2.0,4.0,97,0.00,,---,0.00,VWS V14.01,2013-04-22 15:40:00,
2013-04-22 10:45:00,71.6,70.7,30.08,East,90,0.0,0.0,97,0.00,,---,0.00,VWS V14.01,2013-04-22 15:45:00,
2013-04-22 10:50:00,71.8,70.9,30.08,East,85,4.0,4.0,97,0.00,,---,0.00,VWS V14.01,2013-04-22 15:50:00,
2013-04-22 10:55:00,72.1,71.2,30.08,ENE,65,5.0,5.0,97,0.00,,---,0.00,VWS V14.01,2013-04-22 15:55:00,
2013-04-22 11:00:00,72.3,71.4,30.07,NE,49,1.0,3.0,97,0.00,,---,0.00,VWS V14.01,2013-04-22 16:00:00,
2013-04-22 11:06:00,72.3,71.4,30.07,NE,51,5.0,7.0,97,0.00,,---,0.00,VWS V14.01,2013-04-22 16:06:00,
2013-04-22 11:11:00,72.5,71.6,30.07,NE,43,4.0,7.0,97,0.00,,---,0.00,VWS V14.01,2013-04-22 16:11:00,
2013-04-22 11:15:00,72.7,71.8,30.08,NNW,343,0.0,7.0,97,0.00,,---,0.00,VWS V14.01,2013-04-22 16:15:00,
2013-04-22 11:16:00,72.8,71.9,30.08,ESE,110,6.0,7.0,97,0.00,,---,0.00,VWS V14.01,2013-04-22 16:16:00,
2013-04-22 11:21:00,73.2,72.3,30.08,ENE,63,5.0,7.0,97,0.00,,---,0.00,VWS V14.01,2013-04-22 16:21:00,
2013-04-22 11:26:00,73.3,72.4,30.08,East,96,0.0,7.0,97,0.00,,---,0.00,VWS V14.01,2013-04-22 16:26:00,
2013-04-22 11:30:00,73.2,72.3,30.08,SE,127,0.0,7.0,97,0.00,,---,0.00,VWS V14.01,2013-04-22 16:30:00,
2013-04-22 11:31:00,73.2,72.3,30.08,East,86,3.0,6.0,97,0.00,,---,0.00,VWS V14.01,2013-04-22 16:31:00,
2013-04-22 11:36:00,73.3,72.4,30.08,SE,140,2.0,6.0,97,0.00,,---,0.00,VWS V14.01,2013-04-22 16:36:00,
2013-04-22 11:41:00,73.7,72.8,30.08,ESE,113,0.0,6.0,97,0.00,,---,0.00,VWS V14.01,2013-04-22 16:41:00,
2013-04-22 11:45:00,73.9,73.0,30.07,NE,48,0.0,9.0,97,0.00,,---,0.00,VWS V14.01,2013-04-22 16:45:00,
2013-04-22 11:46:00,73.9,73.0,30.07,NE,40,0.0,4.0,97,0.00,,---,0.00,VWS V14.01,2013-04-22 16:46:00,
2013-04-22 11:52:00,74.2,73.3,30.07,SW,215,5.0,5.0,97,0.00,,---,0.00,VWS V14.01,2013-04-22 16:52:00,
2013-04-22 11:57:00,74.6,73.7,30.07,East,83,0.0,6.0,97,0.00,,---,0.00,VWS V14.01,2013-04-22 16:57:00,
2013-04-22 12:00:00,74.7,73.8,30.06,SSE,147,5.0,9.0,97,0.00,,---,0.00,VWS V14.01,2013-04-22 17:00:00,
2013-04-22 12:02:00,74.6,73.7,30.06,ESE,123,0.0,5.0,97,0.00,,---,0.00,VWS V14.01,2013-04-22 17:02:00,
2013-04-22 12:07:00,74.6,73.7,30.06,SE,128,0.0,6.0,97,0.00,,---,0.00,VWS V14.01,2013-04-22 17:07:00,
2013-04-22 12:12:00,74.7,73.8,30.06,East,88,0.0,6.0,97,0.00,,---,0.00,VWS V14.01,2013-04-22 17:12:00,
2013-04-22 12:15:00,74.6,73.7,30.05,ENE,75,3.0,6.0,97,0.00,,---,0.00,VWS V14.01,2013-04-22 17:15:00,
2013-04-22 12:17:00,74.7,73.8,30.05,ENE,76,0.0,4.0,97,0.00,,---,0.00,VWS V14.01,2013-04-22 17:17:00,
2013-04-22 12:22:00,74.7,73.8,30.05,SE,134,4.0,4.0,97,0.00,,---,0.00,VWS V14.01,2013-04-22 17:22:00,
2013-04-22 12:27:00,74.7,73.8,30.05,ESE,106,0.0,9.0,97,0.00,,---,0.00,VWS V14.01,2013-04-22 17:27:00,
2013-04-22 12:30:00,74.9,74.0,30.05,East,94,0.0,9.0,97,0.00,,---,0.00,VWS V14.01,2013-04-22 17:30:00,
2013-04-22 12:32:00,75.3,74.4,30.05,SE,140,0.0,0.0,97,0.00,,---,0.00,VWS V14.01,2013-04-22 17:32:00,
2013-04-22 12:37:00,75.6,74.7,30.05,SE,135,0.0,4.0,97,0.00,,---,0.00,VWS V14.01,2013-04-22 17:37:00,
2013-04-22 12:43:00,75.6,74.7,30.05,SW,217,6.0,7.0,97,0.00,,---,0.00,VWS V14.01,2013-04-22 17:43:00,
2013-04-22 12:45:00,75.4,74.5,30.04,SW,224,4.0,7.0,97,0.00,,---,0.00,VWS V14.01,2013-04-22 17:45:00,
2013-04-22 12:48:00,75.8,74.9,30.04,SSE,150,0.0,4.0,97,0.00,,---,0.00,VWS V14.01,2013-04-22 17:48:00,
2013-04-22 12:53:00,75.8,74.9,30.04,NNE,12,8.0,8.0,97,0.00,,---,0.00,VWS V14.01,2013-04-22 17:53:00,
2013-04-22 12:58:00,75.8,74.9,30.04,NNE,28,3.0,8.0,97,0.00,,---,0.00,VWS V14.01,2013-04-22 17:58:00,
2013-04-22 13:00:00,75.6,74.7,30.03,NNE,30,8.0,9.0,97,0.00,,---,0.00,VWS V14.01,2013-04-22 18:00:00,
2013-04-22 13:03:00,75.8,74.9,30.03,ENE,66,2.0,9.0,97,0.00,,---,0.00,VWS V14.01,2013-04-22 18:03:00,
2013-04-22 13:08:00,75.8,74.9,30.03,ESE,113,1.0,9.0,97,0.00,,---,0.00,VWS V14.01,2013-04-22 18:08:00,
2013-04-22 13:13:00,76.0,75.1,30.03,ESE,112,0.0,9.0,97,0.00,,---,0.00,VWS V14.01,2013-04-22 18:13:00,
2013-04-22 13:15:00,76.0,75.1,30.03,ESE,114,3.0,9.0,97,0.00,,---,0.00,VWS V14.01,2013-04-22 18:15:00,
2013-04-22 13:18:00,75.8,74.9,30.03,SE,131,0.0,6.0,97,0.00,,---,0.00,VWS V14.01,2013-04-22 18:18:00,
2013-04-22 13:23:00,76.1,75.2,30.03,North,11,0.0,6.0,97,0.00,,---,0.00,VWS V14.01,2013-04-22 18:23:00,
2013-04-22 13:28:00,76.5,75.6,30.03,SSW,212,4.0,6.0,97,0.00,,---,0.00,VWS V14.01,2013-04-22 18:28:00,
2013-04-22 13:30:00,76.5,75.6,30.03,WSW,252,1.0,6.0,97,0.00,,---,0.00,VWS V14.01,2013-04-22 18:30:00,
2013-04-22 13:34:00,76.3,75.4,30.03,NE,35,6.0,10.0,97,0.00,,---,0.00,VWS V14.01,2013-04-22 18:34:00,
2013-04-22 13:39:00,76.3,75.4,30.03,NE,44,0.0,10.0,97,0.00,,---,0.00,VWS V14.01,2013-04-22 18:39:00,
2013-04-22 13:44:00,76.8,75.9,30.02,NNE,32,4.0,10.0,97,0.00,,---,0.00,VWS V14.01,2013-04-22 18:44:00,
2013-04-22 13:45:00,77.0,76.1,30.02,NNE,30,0.0,10.0,97,0.00,,---,0.00,VWS V14.01,2013-04-22 18:45:00,
2013-04-22 13:49:00,77.4,76.5,30.02,South,190,0.0,4.0,97,0.00,,---,0.00,VWS V14.01,2013-04-22 18:49:00,
2013-04-22 13:54:00,77.6,76.7,30.02,East,86,0.0,6.0,97,0.00,,---,0.00,VWS V14.01,2013-04-22 18:54:00,
2013-04-22 13:59:00,77.6,76.7,30.01,East,81,0.0,6.0,97,0.00,,---,0.00,VWS V14.01,2013-04-22 18:59:00,
2013-04-22 14:00:00,77.6,76.7,30.01,East,83,0.0,6.0,97,0.00,,---,0.00,VWS V14.01,2013-04-22 19:00:00,
2013-04-22 14:04:00,77.4,76.5,30.01,SE,143,0.0,3.0,97,0.00,,---,0.00,VWS V14.01,2013-04-22 19:04:00,
2013-04-22 14:09:00,77.2,76.3,30.01,SSW,206,0.0,6.0,97,0.00,,---,0.00,VWS V14.01,2013-04-22 19:09:00,
2013-04-22 14:14:00,77.4,76.5,30.01,SE,129,4.0,7.0,97,0.00,,---,0.00,VWS V14.01,2013-04-22 19:14:00,
2013-04-22 14:15:00,77.4,76.5,30.01,SE,134,1.0,7.0,97,0.00,,---,0.00,VWS V14.01,2013-04-22 19:15:00,
2013-04-22 14:20:00,77.6,76.7,30.01,NE,41,3.0,4.0,97,0.00,,---,0.00,VWS V14.01,2013-04-22 19:20:00,
2013-04-22 14:25:00,78.1,77.2,30.01,North,355,0.0,4.0,97,0.00,,---,0.00,VWS V14.01,2013-04-22 19:25:00,
2013-04-22 14:30:00,78.3,77.4,30.00,SE,134,1.0,1.0,97,0.00,,---,0.00,VWS V14.01,2013-04-22 19:30:00,
2013-04-22 14:35:00,78.6,77.7,30.00,SSW,197,0.0,6.0,97,0.00,,---,0.00,VWS V14.01,2013-04-22 19:35:00,
2013-04-22 14:40:00,78.6,77.7,30.00,ESE,114,0.0,7.0,97,0.00,,---,0.00,VWS V14.01,2013-04-22 19:40:00,
2013-04-22 14:45:00,78.1,77.2,30.00,ESE,103,0.0,1.0,97,0.00,,---,0.00,VWS V14.01,2013-04-22 19:45:00,
2013-04-22 14:50:00,78.5,77.6,30.00,ESE,108,1.0,3.0,97,0.00,,---,0.00,VWS V14.01,2013-04-22 19:50:00,
2013-04-22 14:55:00,78.8,77.9,30.00,SSW,208,0.0,5.0,97,0.00,,---,0.00,VWS V14.01,2013-04-22 19:55:00,
2013-04-22 15:00:00,78.3,77.4,29.99,SE,136,3.0,5.0,97,0.00,,---,0.00,VWS V14.01,2013-04-22 20:00:00,
2013-04-22 15:05:00,78.1,77.2,29.99,ESE,115,0.0,5.0,97,0.00,,---,0.00,VWS V14.01,2013-04-22 20:05:00,
2013-04-22 15:11:00,78.3,77.4,29.99,SSW,211,0.0,5.0,97,0.00,,---,0.00,VWS V14.01,2013-04-22 20:11:00,
2013-04-22 15:15:00,78.6,77.7,29.98,SW,214,0.0,5.0,97,0.00,,---,0.00,VWS V14.01,2013-04-22 20:15:00,
2013-04-22 15:16:00,78.6,77.7,29.98,SW,214,0.0,0.0,97,0.00,,---,0.00,VWS V14.01,2013-04-22 20:16:00,
2013-04-22 15:21:00,79.0,78.1,29.98,SW,214,0.0,0.0,97,0.00,,---,0.00,VWS V14.01,2013-04-22 20:21:00,
2013-04-22 15:26:00,79.2,78.3,29.98,South,171,0.0,5.0,97,0.00,,---,0.00,VWS V14.01,2013-04-22 20:26:00,
2013-04-22 15:30:00,79.2,78.3,29.97,SSE,153,0.0,5.0,97,0.00,,---,0.00,VWS V14.01,2013-04-22 20:30:00,
2013-04-22 15:31:00,79.2,78.3,29.97,SSW,202,0.0,0.0,97,0.00,,---,0.00,VWS V14.01,2013-04-22 20:31:00,
2013-04-22 15:36:00,79.2,78.3,29.97,SSE,152,2.0,5.0,97,0.00,,---,0.00,VWS V14.01,2013-04-22 20:36:00,
2013-04-22 15:41:00,79.6,78.7,29.97,SE,135,0.0,5.0,97,0.00,,---,0.00,VWS V14.01,2013-04-22 20:41:00,
2013-04-22 15:45:00,79.4,78.5,29.97,South,180,0.0,5.0,97,0.00,,---,0.00,VWS V14.01,2013-04-22 20:45:00,
2013-04-22 15:46:00,79.6,78.7,29.97,South,180,0.0,0.0,97,0.00,,---,0.00,VWS V14.01,2013-04-22 20:46:00,
2013-04-22 15:51:00,79.8,78.9,29.97,South,188,0.0,1.0,97,0.00,,---,0.00,VWS V14.01,2013-04-22 20:51:00,
2013-04-22 15:57:00,79.6,78.7,29.97,ESE,118,3.0,3.0,97,0.00,,---,0.00,VWS V14.01,2013-04-22 20:57:00,
2013-04-22 16:00:00,79.6,78.7,29.96,SSW,194,2.0,4.0,97,0.00,,---,0.00,VWS V14.01,2013-04-22 21:00:00,
2013-04-22 16:02:00,79.6,78.7,29.96,SW,219,2.0,3.0,97,0.00,,---,0.00,VWS V14.01,2013-04-22 21:02:00,
2013-04-22 16:07:00,79.8,78.9,29.96,SSW,202,0.0,7.0,97,0.00,,---,0.00,VWS V14.01,2013-04-22 21:07:00,
2013-04-22 16:12:00,79.6,78.7,29.96,SSW,197,0.0,7.0,97,0.00,,---,0.00,VWS V14.01,2013-04-22 21:12:00,
2013-04-22 16:15:00,79.6,78.7,29.95,SE,131,0.0,7.0,97,0.00,,---,0.00,VWS V14.01,2013-04-22 21:15:00,
2013-04-22 16:17:00,79.6,78.7,29.95,SE,142,2.0,3.0,97,0.00,,---,0.00,VWS V14.01,2013-04-22 21:17:00,
2013-04-22 16:22:00,79.4,78.5,29.95,ESE,104,0.0,3.0,97,0.00,,---,0.00,VWS V14.01,2013-04-22 21:22:00,
2013-04-22 16:27:00,79.2,78.3,29.95,SE,128,0.0,3.0,97,0.00,,---,0.00,VWS V14.01,2013-04-22 21:27:00,
2013-04-22 16:30:00,79.2,78.3,29.95,ESE,110,5.0,7.0,97,0.00,,---,0.00,VWS V14.01,2013-04-22 21:30:00,
2013-04-22 16:32:00,78.8,77.9,29.95,East,88,0.0,6.0,97,0.00,,---,0.00,VWS V14.01,2013-04-22 21:32:00,
2013-04-22 16:37:00,79.0,78.1,29.95,SE,140,4.0,6.0,97,0.00,,---,0.00,VWS V14.01,2013-04-22 21:37:00,
2013-04-22 16:43:00,79.0,78.1,29.95,SE,136,0.0,6.0,97,0.00,,---,0.00,VWS V14.01,2013-04-22 21:43:00,
2013-04-22 16:45:00,79.0,78.1,29.94,ESE,104,0.0,6.0,97,0.00,,---,0.00,VWS V14.01,2013-04-22 21:45:00,
2013-04-22 16:48:00,79.2,78.3,29.94,SSE,163,0.0,5.0,97,0.00,,---,0.00,VWS V14.01,2013-04-22 21:48:00,
2013-04-22 16:53:00,79.8,78.9,29.94,ESE,121,0.0,5.0,97,0.00,,---,0.00,VWS V14.01,2013-04-22 21:53:00,
2013-04-22 16:58:00,79.6,78.7,29.94,SSE,155,0.0,11.0,97,0.00,,---,0.00,VWS V14.01,2013-04-22 21:58:00,
2013-04-22 17:00:00,79.6,78.7,29.94,SE,130,0.0,11.0,97,0.00,,---,0.00,VWS V14.01,2013-04-22 22:00:00,
2013-04-22 17:03:00,79.8,78.9,29.94,SSW,196,0.0,0.0,97,0.00,,---,0.00,VWS V14.01,2013-04-22 22:03:00,
2013-04-22 17:08:00,79.6,78.7,29.94,SSW,196,0.0,6.0,97,0.00,,---,0.00,VWS V14.01,2013-04-22 22:08:00,
2013-04-22 17:13:00,79.2,78.3,29.94,ESE,106,0.0,6.0,97,0.00,,---,0.00,VWS V14.01,2013-04-22 22:13:00,
2013-04-22 17:15:00,79.2,78.3,29.94,SE,141,0.0,6.0,97,0.00,,---,0.00,VWS V14.01,2013-04-22 22:15:00,
2013-04-22 17:18:00,79.2,78.3,29.94,ESE,117,0.0,5.0,97,0.00,,---,0.00,VWS V14.01,2013-04-22 22:18:00,
2013-04-22 17:24:00,79.0,78.1,29.94,SSW,193,0.0,5.0,97,0.00,,---,0.00,VWS V14.01,2013-04-22 22:24:00,
2013-04-22 17:28:00,78.8,77.9,29.94,SSE,156,0.0,5.0,97,0.00,,---,0.00,VWS V14.01,2013-04-22 22:28:00,
2013-04-22 17:30:00,78.8,77.9,29.93,ESE,121,0.0,7.0,97,0.00,,---,0.00,VWS V14.01,2013-04-22 22:30:00,
2013-04-22 17:34:00,78.5,77.6,29.93,South,191,0.0,0.0,97,0.00,,---,0.00,VWS V14.01,2013-04-22 22:34:00,
2013-04-22 17:39:00,78.3,77.4,29.93,SSE,167,0.0,4.0,97,0.00,,---,0.00,VWS V14.01,2013-04-22 22:39:00,
2013-04-22 17:44:00,78.1,77.2,29.93,SE,140,0.0,6.0,97,0.00,,---,0.00,VWS V14.01,2013-04-22 22:44:00,
2013-04-22 17:45:00,78.1,77.2,29.93,SE,141,0.0,6.0,97,0.00,,---,0.00,VWS V14.01,2013-04-22 22:45:00,
2013-04-22 17:49:00,78.3,77.4,29.93,SSW,211,0.0,0.0,97,0.00,,---,0.00,VWS V14.01,2013-04-22 22:49:00,
2013-04-22 17:54:00,78.1,77.2,29.93,ESE,111,0.0,6.0,97,0.00,,---,0.00,VWS V14.01,2013-04-22 22:54:00,
2013-04-22 17:59:00,78.1,77.2,29.93,SSW,205,0.0,6.0,97,0.00,,---,0.00,VWS V14.01,2013-04-22 22:59:00,
2013-04-22 18:00:00,78.1,77.2,29.93,ENE,58,0.0,6.0,97,0.00,,---,0.00,VWS V14.01,2013-04-22 23:00:00,
2013-04-22 18:04:00,77.7,76.8,29.93,ESE,104,0.0,7.0,97,0.00,,---,0.00,VWS V14.01,2013-04-22 23:04:00,
2013-04-22 18:09:00,77.6,76.7,29.93,South,189,0.0,7.0,97,0.00,,---,0.00,VWS V14.01,2013-04-22 23:09:00,
2013-04-22 18:14:00,77.0,76.1,29.93,South,189,0.0,7.0,97,0.00,,---,0.00,VWS V14.01,2013-04-22 23:14:00,
2013-04-22 18:15:00,77.0,76.1,29.93,South,189,0.0,7.0,97,0.00,,---,0.00,VWS V14.01,2013-04-22 23:15:00,
2013-04-22 18:19:00,76.8,75.9,29.93,SE,138,0.0,0.0,97,0.00,,---,0.00,VWS V14.01,2013-04-22 23:19:00,
2013-04-22 18:25:00,76.5,75.6,29.93,SE,126,0.0,3.0,97,0.00,,---,0.00,VWS V14.01,2013-04-22 23:25:00,
2013-04-22 18:30:00,76.1,75.2,29.94,East,90,0.0,3.0,97,0.00,,---,0.00,VWS V14.01,2013-04-22 23:30:00,
2013-04-22 18:35:00,75.8,74.9,29.94,South,174,0.0,0.0,97,0.00,,---,0.00,VWS V14.01,2013-04-22 23:35:00,
2013-04-22 18:40:00,75.4,74.5,29.94,SSW,195,0.0,5.0,97,0.00,,---,0.00,VWS V14.01,2013-04-22 23:40:00,
2013-04-22 18:45:00,75.1,74.2,29.94,SSE,159,0.0,5.0,97,0.00,,---,0.00,VWS V14.01,2013-04-22 23:45:00,
2013-04-22 18:50:00,74.7,73.8,29.94,ESE,119,0.0,0.0,97,0.00,,---,0.00,VWS V14.01,2013-04-22 23:50:00,
2013-04-22 18:55:00,74.4,73.5,29.94,ESE,119,0.0,0.0,97,0.00,,---,0.00,VWS V14.01,2013-04-22 23:55:00,
2013-04-22 19:00:00,74.0,73.1,29.94,ESE,119,0.0,0.0,97,0.00,,---,0.00,VWS V14.01,2013-04-23 00:00:00,
2013-04-22 19:05:00,73.5,72.6,29.94,ESE,119,0.0,0.0,97,0.00,,---,0.00,VWS V14.01,2013-04-23 00:05:00,
2013-04-22 19:10:00,73.2,72.3,29.94,ESE,119,0.0,0.0,97,0.00,,---,0.00,VWS V14.01,2013-04-23 00:10:00,
2013-04-22 19:15:00,72.5,71.6,29.93,ESE,119,0.0,0.0,97,0.00,,---,0.00,VWS V14.01,2013-04-23 00:15:00,
2013-04-22 19:20:00,72.0,71.1,29.93,ESE,119,0.0,0.0,97,0.00,,---,0.00,VWS V14.01,2013-04-23 00:20:00,
2013-04-22 19:26:00,71.5,70.6,29.93,ESE,119,0.0,0.0,97,0.00,,---,0.00,VWS V14.01,2013-04-23 00:26:00,
2013-04-22 19:30:00,70.9,70.0,29.93,ESE,119,0.0,0.0,97,0.00,,---,0.00,VWS V14.01,2013-04-23 00:30:00,
2013-04-22 19:31:00,70.9,70.0,29.93,ESE,119,0.0,0.0,97,0.00,,---,0.00,VWS V14.01,2013-04-23 00:31:00,
2013-04-22 19:36:00,70.4,69.5,29.93,ESE,119,0.0,0.0,97,0.00,,---,0.00,VWS V14.01,2013-04-23 00:36:00,
2013-04-22 19:41:00,69.9,69.0,29.93,ESE,119,0.0,0.0,97,0.00,,---,0.00,VWS V14.01,2013-04-23 00:41:00,
2013-04-22 19:45:00,69.4,68.5,29.94,ESE,119,0.0,0.0,97,0.00,,---,0.00,VWS V14.01,2013-04-23 00:45:00,
2013-04-22 19:46:00,69.4,68.5,29.94,ESE,119,0.0,0.0,97,0.00,,---,0.00,VWS V14.01,2013-04-23 00:46:00,
2013-04-22 19:51:00,68.8,67.9,29.94,ESE,119,0.0,0.0,97,0.00,,---,0.00,VWS V14.01,2013-04-23 00:51:00,
2013-04-22 19:56:00,68.3,67.4,29.94,ESE,119,0.0,0.0,97,0.00,,---,0.00,VWS V14.01,2013-04-23 00:56:00,
2013-04-22 20:00:00,67.9,67.0,29.94,ESE,119,0.0,0.0,97,0.00,,---,0.00,VWS V14.01,2013-04-23 01:00:00,
2013-04-22 20:01:00,67.8,66.9,29.94,ESE,119,0.0,0.0,97,0.00,,---,0.00,VWS V14.01,2013-04-23 01:01:00,
2013-04-22 20:06:00,67.4,66.5,29.94,SE,140,0.0,0.0,97,0.00,,---,0.00,VWS V14.01,2013-04-23 01:06:00,
2013-04-22 20:11:00,67.3,66.4,29.94,SE,140,0.0,0.0,97,0.00,,---,0.00,VWS V14.01,2013-04-23 01:11:00,
2013-04-22 20:15:00,67.3,66.4,29.95,SE,140,0.0,0.0,97,0.00,,---,0.00,VWS V14.01,2013-04-23 01:15:00,
2013-04-22 20:16:00,67.3,66.4,29.95,SE,140,0.0,0.0,97,0.00,,---,0.00,VWS V14.01,2013-04-23 01:16:00,
2013-04-22 20:21:00,67.3,66.4,29.95,SE,140,0.0,0.0,97,0.00,,---,0.00,VWS V14.01,2013-04-23 01:21:00,
2013-04-22 20:26:00,67.1,66.2,29.95,SE,140,0.0,0.0,97,0.00,,---,0.00,VWS V14.01,2013-04-23 01:26:00,
2013-04-22 20:30:00,67.1,66.2,29.95,SE,140,0.0,0.0,97,0.00,,---,0.00,VWS V14.01,2013-04-23 01:30:00,
2013-04-22 20:31:00,66.9,66.0,29.95,SE,140,0.0,0.0,97,0.00,,---,0.00,VWS V14.01,2013-04-23 01:31:00,
2013-04-22 20:36:00,66.9,66.0,29.95,SE,140,0.0,0.0,97,0.00,,---,0.00,VWS V14.01,2013-04-23 01:36:00,
2013-04-22 20:42:00,66.6,65.7,29.95,SE,140,0.0,0.0,97,0.00,,---,0.00,VWS V14.01,2013-04-23 01:42:00,
2013-04-22 20:45:00,66.4,65.5,29.96,SE,140,0.0,0.0,97,0.00,,---,0.00,VWS V14.01,2013-04-23 01:45:00,
2013-04-22 20:47:00,66.4,65.5,29.96,SE,140,0.0,0.0,97,0.00,,---,0.00,VWS V14.01,2013-04-23 01:47:00,
2013-04-22 20:52:00,66.3,65.4,29.96,SE,140,0.0,0.0,97,0.00,,---,0.00,VWS V14.01,2013-04-23 01:52:00,
2013-04-22 20:57:00,66.1,65.2,29.96,SE,140,0.0,0.0,97,0.00,,---,0.00,VWS V14.01,2013-04-23 01:57:00,
2013-04-22 21:00:00,65.8,64.9,29.97,SE,140,0.0,0.0,97,0.00,,---,0.00,VWS V14.01,2013-04-23 02:00:00,
2013-04-22 21:02:00,65.8,64.9,29.97,SE,140,0.0,0.0,97,0.00,,---,0.00,VWS V14.01,2013-04-23 02:02:00,
2013-04-22 21:07:00,65.5,64.6,29.97,SE,140,0.0,0.0,97,0.00,,---,0.00,VWS V14.01,2013-04-23 02:07:00,
2013-04-22 21:12:00,65.2,64.3,29.97,SE,140,0.0,0.0,97,0.00,,---,0.00,VWS V14.01,2013-04-23 02:12:00,
2013-04-22 21:15:00,65.2,64.3,29.97,SE,140,0.0,0.0,97,0.00,,---,0.00,VWS V14.01,2013-04-23 02:15:00,
2013-04-22 21:17:00,65.0,64.1,29.97,SE,140,0.0,0.0,97,0.00,,---,0.00,VWS V14.01,2013-04-23 02:17:00,
2013-04-22 21:22:00,64.8,63.9,29.97,SE,140,0.0,0.0,97,0.00,,---,0.00,VWS V14.01,2013-04-23 02:22:00,
2013-04-22 21:27:00,64.7,63.8,29.97,SE,140,0.0,0.0,97,0.00,,---,0.00,VWS V14.01,2013-04-23 02:27:00,
2013-04-22 21:30:00,64.7,63.8,29.97,SE,140,0.0,0.0,97,0.00,,---,0.00,VWS V14.01,2013-04-23 02:30:00,
2013-04-22 21:32:00,64.5,63.6,29.97,SE,140,0.0,0.0,97,0.00,,---,0.00,VWS V14.01,2013-04-23 02:32:00,
2013-04-22 21:37:00,64.5,63.6,29.97,SE,140,0.0,0.0,97,0.00,,---,0.00,VWS V14.01,2013-04-23 02:37:00,
2013-04-22 21:42:00,64.5,63.6,29.97,SE,140,0.0,0.0,97,0.00,,---,0.00,VWS V14.01,2013-04-23 02:42:00,
2013-04-22 21:45:00,64.5,63.6,29.97,SE,140,0.0,0.0,97,0.00,,---,0.00,VWS V14.01,2013-04-23 02:45:00,
2013-04-22 21:48:00,64.3,63.4,29.97,SE,140,0.0,0.0,97,0.00,,---,0.00,VWS V14.01,2013-04-23 02:48:00,
2013-04-22 21:53:00,64.2,63.3,29.97,SE,140,0.0,0.0,97,0.00,,---,0.00,VWS V14.01,2013-04-23 02:53:00,
2013-04-22 21:58:00,64.0,63.1,29.97,SE,142,0.0,1.0,97,0.00,,---,0.00,VWS V14.01,2013-04-23 02:58:00,
2013-04-22 22:00:00,64.0,63.1,29.97,SE,142,0.0,1.0,97,0.00,,---,0.00,VWS V14.01,2013-04-23 03:00:00,
2013-04-22 22:03:00,64.0,63.1,29.97,SE,142,0.0,0.0,97,0.00,,---,0.00,VWS V14.01,2013-04-23 03:03:00,
2013-04-22 22:08:00,64.2,63.3,29.97,SE,142,0.0,0.0,97,0.00,,---,0.00,VWS V14.01,2013-04-23 03:08:00,
2013-04-22 22:13:00,64.2,63.3,29.97,SE,142,0.0,0.0,97,0.00,,---,0.00,VWS V14.01,2013-04-23 03:13:00,
2013-04-22 22:15:00,64.2,63.3,29.97,SE,142,0.0,0.0,97,0.00,,---,0.00,VWS V14.01,2013-04-23 03:15:00,
2013-04-22 22:18:00,64.0,63.1,29.97,SE,142,0.0,0.0,97,0.00,,---,0.00,VWS V14.01,2013-04-23 03:18:00,
2013-04-22 22:23:00,64.2,63.3,29.97,SE,142,0.0,0.0,97,0.00,,---,0.00,VWS V14.01,2013-04-23 03:23:00,
2013-04-22 22:28:00,64.2,63.3,29.97,SE,142,0.0,0.0,97,0.00,,---,0.00,VWS V14.01,2013-04-23 03:28:00,
2013-04-22 22:30:00,64.2,63.3,29.97,SE,142,0.0,0.0,97,0.00,,---,0.00,VWS V14.01,2013-04-23 03:30:00,
2013-04-22 22:33:00,64.2,63.3,29.97,SE,142,0.0,0.0,97,0.00,,---,0.00,VWS V14.01,2013-04-23 03:33:00,
2013-04-22 22:38:00,64.0,63.1,29.97,SE,142,0.0,0.0,97,0.00,,---,0.00,VWS V14.01,2013-04-23 03:38:00,
2013-04-22 22:43:00,64.2,63.3,29.97,SE,142,0.0,0.0,97,0.00,,---,0.00,VWS V14.01,2013-04-23 03:43:00,
2013-04-22 22:45:00,64.2,63.3,29.97,SE,142,0.0,0.0,97,0.00,,---,0.00,VWS V14.01,2013-04-23 03:45:00,
2013-04-22 22:49:00,64.3,63.4,29.97,SE,142,0.0,0.0,97,0.00,,---,0.00,VWS V14.01,2013-04-23 03:49:00,
2013-04-22 22:54:00,64.3,63.4,29.97,SE,142,0.0,0.0,97,0.00,,---,0.00,VWS V14.01,2013-04-23 03:54:00,
2013-04-22 22:59:00,64.2,63.3,29.97,SE,142,0.0,0.0,97,0.00,,---,0.00,VWS V14.01,2013-04-23 03:59:00,
2013-04-22 23:00:00,64.2,63.3,29.97,SE,142,0.0,0.0,97,0.00,,---,0.00,VWS V14.01,2013-04-23 04:00:00,
2013-04-22 23:01:00,64.2,63.3,29.97,SE,142,0.0,0.0,97,0.00,,---,0.00,VWS V14.01,2013-04-23 04:01:00,
2013-04-22 23:02:00,64.0,63.1,29.97,SE,142,0.0,0.0,97,0.00,,---,0.00,VWS V14.01,2013-04-23 04:02:00,
2013-04-22 23:08:00,63.9,63.0,29.97,SE,142,0.0,0.0,97,0.00,,---,0.00,VWS V14.01,2013-04-23 04:08:00,
2013-04-22 23:13:00,63.9,63.0,29.97,SE,142,0.0,0.0,97,0.00,,---,0.00,VWS V14.01,2013-04-23 04:13:00,
2013-04-22 23:15:00,63.7,62.8,29.97,SE,142,0.0,0.0,97,0.00,,---,0.00,VWS V14.01,2013-04-23 04:15:00,
2013-04-22 23:18:00,63.5,62.6,29.97,SE,142,0.0,0.0,97,0.00,,---,0.00,VWS V14.01,2013-04-23 04:18:00,
2013-04-22 23:23:00,63.4,62.5,29.97,SSW,206,0.0,0.0,97,0.00,,---,0.00,VWS V14.01,2013-04-23 04:23:00,
2013-04-22 23:28:00,63.4,62.5,29.97,SSW,206,0.0,0.0,97,0.00,,---,0.00,VWS V14.01,2013-04-23 04:28:00,
2013-04-22 23:30:00,63.4,62.5,29.97,SSW,206,0.0,0.0,97,0.00,,---,0.00,VWS V14.01,2013-04-23 04:30:00,
2013-04-22 23:33:00,63.4,62.5,29.97,SSW,206,0.0,0.0,97,0.00,,---,0.00,VWS V14.01,2013-04-23 04:33:00,
2013-04-22 23:38:00,63.2,62.3,29.97,SSW,206,0.0,0.0,97,0.00,,---,0.00,VWS V14.01,2013-04-23 04:38:00,
2013-04-22 23:43:00,63.1,62.2,29.97,SSW,206,0.0,0.0,97,0.00,,---,0.00,VWS V14.01,2013-04-23 04:43:00,
2013-04-22 23:45:00,63.1,62.2,29.97,SSW,206,0.0,0.0,97,0.00,,---,0.00,VWS V14.01,2013-04-23 04:45:00,
2013-04-22 23:48:00,63.1,62.2,29.97,SSW,206,0.0,0.0,97,0.00,,---,0.00,VWS V14.01,2013-04-23 04:48:00,
2013-04-22 23:53:00,62.9,62.0,29.97,SSW,206,0.0,0.0,97,0.00,,---,0.00,VWS V14.01,2013-04-23 04:53:00,
2013-04-22 23:59:00,62.7,61.8,29.97,SSW,206,0.0,0.0,97,0.00,,---,0.00,VWS V14.01,2013-04-23 04:59:00,